Home > Weather > L'viv > Past weeks

Flag for Ukraine Weather for the Past 2 Weeks in L'viv, Ukraine

Now
39 °F

Sunny.


Feels Like: 32 °F
Forecast: 36 / 47 °F
Wind: 13 mph from Southeast

Location: L'Viv Airport

Current Time: Feb 13, 2016 at 11:56:38 AM

Latest Report: Feb 13, 2016 at 11:30 AM


Visibility: 10 mi

Pressure: 29.53 "Hg

Humidity: 75%

Dew point: 32 °F

Location of L'vivLocation

Historic Weather in L'viv — Graph

°F

L'viv Temperature Yesterday

Maximum temperature yesterday: 45 °F (at 1:30 PM)
Minimum temperature yesterday: 28 °F (at 5:30 AM)
Average temperature yesterday: 35 °F

High & Low Weather Summary for the Past Weeks

 TemperatureHumidityPressure
High54 °F (Feb 9, 1:30 PM)100% (Feb 1, 11:00 AM)30.30 "Hg (Feb 1, 11:00 AM)
Low25 °F (Feb 7, 2:30 AM)46% (Feb 8, 1:30 PM)29.18 "Hg (Feb 10, 8:30 PM)
Average38 °F79%29.88 "Hg
* Reported Jan 29 10:00 AM — Feb 13 10:30 AM, L'viv, Weather by CustomWeather, © 2016

Note: Actual official high and low records may vary slightly from our data, if they occured in-between our weather recording intervals... More about our weather records

Advertising

L'viv Weather History for the Previous 24 Hours

 ConditionsComfort  
Time TempWeatherWind HumidityBarometerVisibility
10:30 AM
Sat, Feb 13
37 °FSunny.13 mph75%29.53 "Hg10 mi
10:00 AM36 °FSunny.15 mph81%29.53 "Hg10 mi
9:30 AM36 °FSunny.13 mph81%29.53 "Hg10 mi
9:00 AM36 °FSunny.10 mph75%29.56 "Hg10 mi
8:30 AM36 °FSunny.8 mph75%29.56 "Hg10 mi
8:00 AM36 °FMostly cloudy.8 mph75%29.56 "HgN/A
7:30 AM36 °FMostly cloudy.8 mph75%29.59 "HgN/A
7:00 AM36 °FClear.8 mph75%29.59 "HgN/A
6:30 AM36 °FClear.8 mph70%29.59 "Hg10 mi
6:00 AM36 °FClear.10 mph70%29.59 "Hg10 mi
5:30 AM36 °FClear.8 mph70%29.59 "Hg10 mi
5:00 AM36 °FClear.10 mph70%29.59 "Hg10 mi
4:30 AM36 °FClear.10 mph70%29.62 "Hg10 mi
4:00 AM36 °FClear.10 mph70%29.62 "Hg10 mi
3:30 AM36 °FClear.10 mph65%29.62 "Hg10 mi
3:00 AM36 °FClear.8 mph65%29.65 "Hg10 mi
2:30 AM36 °FClear.10 mph65%29.65 "Hg10 mi
2:00 AM36 °FClear.8 mph65%29.65 "Hg10 mi
1:30 AM36 °FClear.8 mph70%29.68 "Hg10 mi
1:00 AM34 °FClear.8 mph75%29.68 "Hg10 mi
12:30 AM36 °FClear.8 mph65%29.68 "Hg10 mi
12:00 AM36 °FClear.6 mph65%29.71 "Hg10 mi
11:30 PM
Fri, Feb 12
34 °FClear.6 mph70%29.71 "Hg10 mi
11:00 PM36 °FClear.8 mph65%29.74 "Hg10 mi
10:30 PM34 °FClear.8 mph70%29.74 "Hg10 mi
10:00 PM36 °FClear.8 mph65%29.74 "Hg10 mi
9:30 PM37 °FClear.8 mph60%29.74 "Hg10 mi
9:00 PM37 °FClear.8 mph65%29.74 "Hg10 mi
8:30 PM36 °FClear.8 mph65%29.77 "Hg10 mi
8:00 PM36 °FClear.6 mph70%29.77 "Hg10 mi
7:30 PM30 °FClear.3 mph80%29.77 "Hg10 mi
7:00 PM34 °FClear.3 mph75%29.77 "Hg10 mi
6:30 PM34 °FClear.6 mph75%29.77 "Hg10 mi
6:00 PM34 °FClear.3 mph75%29.77 "Hg10 mi
5:30 PM39 °FSunny.3 mph61%29.77 "Hg10 mi
5:00 PM41 °FSunny.3 mph57%29.77 "Hg10 mi
4:30 PM43 °FPassing clouds.3 mph53%29.77 "HgN/A
4:00 PM43 °FPassing clouds.6 mph53%29.80 "HgN/A
3:30 PM43 °FPartly sunny.8 mph49%29.80 "HgN/A
3:00 PM43 °FPartly sunny.3 mph53%29.77 "HgN/A
2:30 PM45 °FPartly sunny.6 mph49%29.77 "HgN/A
2:00 PM43 °FPartly sunny.6 mph53%29.80 "HgN/A
1:30 PM45 °FPartly sunny.8 mph49%29.80 "HgN/A
1:00 PM43 °FPartly sunny.8 mph57%29.80 "HgN/A
12:30 PM41 °FPartly sunny.6 mph66%29.80 "HgN/A
12:00 PM41 °FScattered clouds.8 mph66%29.80 "HgN/A
11:30 AM39 °FSunny.8 mph65%29.83 "Hg10 mi
11:00 AM37 °FSunny.6 mph75%29.80 "Hg10 mi
Weather by CustomWeather, © 2016

See weather overviewHow to use our weather pages